Regional Weather Roundup
Issued by NWS Charleston, SC

Current Version | Previous Version | Text Only | Print | Product List | Glossary Off
Versions: 1 2 3 4 5 6 7 8 9 10 11 12 13 14 15 16 17 18 19 20 21 22 23 24 25 26 27 28 29 30 31 32 33 34 35 36 37 38 39 40 41 42 43 44 45 46 47 48 49 50
000 ASUS42 KCHS 181725 RWRCHS REGIONAL WEATHER ROUNDUP NATIONAL WEATHER SERVICE CHARLESTON SC 100 PM EDT THU SEP 18 2014 NOTE: "FAIR" INDICATES FEW OR NO CLOUDS BELOW 12,000 FEET WITH NO SIGNIFICANT WEATHER AND/OR OBSTRUCTIONS TO VISIBILITY. NOT ALL STATIONS ARE QUALITY CONTROLLED BY THE NATIONAL WEATHER SERVICE. USE DATA WITH CAUTION...ESPECIALLY DEWPOINT OBSERVATIONS. SCZ027-030-031-034>040-042>050-181800- ...SOUTH CAROLINA... CITY SKY/WX TMP DP RH WIND PRES REMARKS N CHARLESTON PTSUNNY 86 68 54 N6 29.95F WATERFRONT PRK N/A 84 N/A N/A SE3 N/A FORT JOHNSON NOT AVBL MOUNT PLEASANT FAIR 84 72 65 CALM 29.95S JOHNS ISLAND PTSUNNY 82 81 94 CALM 29.95F HX 95 PINOPOLIS N/A 79 70 73 N9 29.91R MONCKS CORNER N/A 82 73 74 N7 29.96F SUMMERVILLE FAIR 82 72 69 N5 29.97S BEAUFORT MCAS PTSUNNY 83 71 67 W6 29.95F BEAUFORT ARPT FAIR 84 72 65 E3 29.95S HILTON HEAD IS MOSUNNY 82 73 74 NE6 29.96S GEORGETOWN NOT AVBL WALTERBORO PTSUNNY 81 64 57 N5 29.96F ORANGEBURG MOSUNNY 81 67 62 E7 29.98S BARNWELL FAIR 82 70 65 NE7 29.98F AIKEN FAIR 79 70 73 CALM 30.02S MANNING PTSUNNY 79 72 78 N7 29.98S KINGSTREE NOT AVBL COLUMBIA MOSUNNY 77 66 68 CALM 29.99S SUMTER NOT AVBL FLORENCE PTSUNNY 80 67 64 VRB3 29.97F MYRTLE BEACH PTSUNNY 81 70 69 E12 29.96F N MYRTLE BEACH HVY RAIN 73 68 84 SE3 29.97S VSB 1/2 $$ GAZ063-065-086>088-099>101-113>116-118-119-134-136>141-150-181800- ...GEORGIA... CITY SKY/WX TMP DP RH WIND PRES REMARKS SAVANNAH ARPT PTSUNNY 87 71 58 VRB5 29.95F HX 93 HUNTER AAF NOT AVBL FORT STEWART NOT AVBL STATESBORO NOT AVBL SYLVANIA CLOUDY 82 73 74 N3 29.98S CLAXTON FAIR 82 73 74 CALM 29.95F THOMSON MOSUNNY 80 74 80 CALM 30.03F AUGUSTA-BUSH CLOUDY 78 68 71 VRB5 29.97F AUGUSTA-DANIEL PTSUNNY 79 68 69 SE6 29.99F SWAINSBORO CLOUDY 79 77 94 NE5 29.99S VIDALIA CLOUDY 79 72 78 N3 29.98S ALMA MOSUNNY 84 70 62 NW6 29.95F WAYCROSS MOSUNNY 90 69 49 N6 29.94S HX 95 JESUP PTSUNNY 90 77 66 CALM 29.94S HX 102 BRUNSWICK PTSUNNY 88 72 58 CALM 29.93F HX 94 SAINT SIMONS PTSUNNY 85 70 60 SE6 29.93F $$ SCZ027-028-034-036>038-045-046-048>050-GAZ119-141-181800- ...LAKE AND SUPPLEMENTAL COASTAL OBSERVATIONS... STATION/POSITION TIME TEMP WIND PRES WAVE SWELL AIR SEA DIR/SP/G HT/PER HT/PER/DIR (UTC) (F) (DEG/KT/KT) (MB) (FT/S) (FT/S/D) UPR LAKE MARION NOT AVBL WINYAH BAY 1700 79 70/ 7 1014.0S LAKE MURRAY 1600 74 130/ 1/ 3 1015.2F ACE BASIN NERRS 1700 85 50/ 2 1014.0S FORT PULASKI 1700 81 70/ 9/ 10 1014.2F SAPELO ISLAND 1700 86 70/ 4 1015.0S $$ ANZ835-935-AMZ111-154-330-350-352-354-374-450-454-472-181800- ...C-MAN AND BUOY OBSERVATIONS... STATION/POSITION TIME TEMP WIND PRES WAVE SWELL AIR SEA DIR/SP/G HT/PER HT/PER/DIR (UTC) (F) (DEG/KT/KT) (MB) (FT/S) (FT/S/D) FOLLY BEACH CMAN 1700 81 100/ 4/ 6 1014.7F BUOY 41004 1700 79 83 20/ 6/ 8 1013.9F 3/12 3/12 BUOY 41008 1700 82 85 110/ 4/ 6 1014.1F 3/14 3/ 80/14 5E ST. MARYS GA 1700 85 N/A 2/12 2/100/12 FRYING PAN BUOY NOT AVBL BUOY 41025 1600 74 10/ 17/ 21 1014.8R 6/11 3/ 90/11 CAPE LOOKOUT NC 1700 75 50/ 17/ 19 1015.4R BUOY 41002 1552 79 83 20/ 6/ 8 1014.0F 3/11 3/ 50/11 BUOY 41010 1700 82 85 30/ 8/ 12 1013.7F 4/13 5/ 60/13 BUOY 41012 NOT AVBL ST AUGUSTINE FL 1700 80 40/ 8/ 9 1014.3F CAPERS NEARSHORE NOT AVBL FRIPP NEARSHORE NOT AVBL $$

USA.gov is the U.S. government's official web portal to all federal, state and local government web resources and services.